Weather History for PAPO - June, 2013

Change the Weather History Date:

Monday, June 3, 2013

  Actual Average Record
Temperature  
Mean Temperature 32 °F -  
Max Temperature 35 °F - - ()
Min Temperature 30 °F - - ()
Degree Days  
Heating Degree Days 32    
Moisture  
Dew Point 29 °F    
Average Humidity 81    
Maximum Humidity 87    
Minimum Humidity 70    
Precipitation  
Precipitation 0.00 in - - ()
Sea Level Pressure  
Sea Level Pressure 29.91 in    
Wind  
Wind Speed 13 mph (North)    
Max Wind Speed 28 mph    
Max Gust Speed 32 mph    
Visibility 10 miles    
Events      
T = Trace of Precipitation, MM = Missing Value Source: NWS Daily Summary

Daily Weather History Graph

Daily Weather History Graph

Search for Another Location

Airport or City:

Trip Planner

Search our weather history database for the weather conditions in past years. The results will help you decide how hot, cold, wet, or windy it might be!

Date:

Astronomy

Jun. 03, 2013 Rise Set
Actual Time 3:37 AM AKDT 2:33 AM AKDT
Civil Twilight Sun does not set Sun does not set
Nautical Twilight Sun does not set Sun does not set
Astronomical Twilight Sun does not set Sun does not set
Moon 3:42 AM AKDT (6/3) 7:38 PM AKDT (6/3)
Length of Visible Light 24h 00m
Length of Day
22h 55m
Waning Crescent, 20% of the Moon is Illuminated
Jun 3
Waning Crescent
Jun 8
New
Jun 16
First Quarter
Jun 23
Full
Jun 29
Last Quarter

Hourly Weather History & Observations

Time (AKDT) Temp. Windchill Dew Point Humidity Pressure Visibility Wind Dir Wind Speed Gust Speed Precip Events Conditions
12:16 AM 35.6 °F 32.8 °F 30.2 °F 81% 29.93 in 10.0 mi West 3.5 mph - N/A   Clear
12:36 AM 35.6 °F 31.7 °F 30.2 °F 81% 29.93 in 10.0 mi WNW 4.6 mph - N/A   Clear
12:56 AM 35.6 °F 31.7 °F 30.2 °F 81% 29.93 in 10.0 mi West 4.6 mph - N/A   Clear
1:16 AM 35.6 °F 31.7 °F 30.2 °F 81% 29.93 in 10.0 mi WNW 4.6 mph - N/A   Clear
1:36 AM 33.8 °F 28.6 °F 30.2 °F 87% 29.93 in 10.0 mi WNW 5.8 mph - N/A   Scattered Clouds
1:56 AM 33.8 °F 29.6 °F 30.2 °F 87% 29.93 in 10.0 mi NW 4.6 mph - N/A   Mostly Cloudy
2:16 AM 35.6 °F 32.8 °F 30.2 °F 81% 29.93 in 10.0 mi NW 3.5 mph - N/A   Mostly Cloudy
2:36 AM 35.6 °F 32.8 °F 32.0 °F 87% 29.93 in 10.0 mi NNW 3.5 mph - N/A   Overcast
2:56 AM 35.6 °F - 32.0 °F 87% 29.92 in 10.0 mi Calm Calm - N/A   Overcast
3:16 AM 35.6 °F 32.8 °F 32.0 °F 87% 29.93 in 10.0 mi NW 3.5 mph - N/A   Overcast
3:36 AM 35.6 °F 29.2 °F 30.2 °F 81% 29.93 in 10.0 mi WNW 8.1 mph - N/A   Overcast
3:56 AM 33.8 °F 28.6 °F 30.2 °F 87% 29.92 in 10.0 mi NW 5.8 mph - N/A   Overcast
4:36 AM 35.6 °F 28.6 °F 32.0 °F 87% 29.92 in 10.0 mi NNW 9.2 mph - N/A   Overcast
4:56 AM 35.6 °F 28.0 °F 30.2 °F 81% 29.92 in 10.0 mi North 10.4 mph - N/A   Overcast
5:16 AM 35.6 °F 28.0 °F 30.2 °F 81% 29.91 in 10.0 mi North 10.4 mph - N/A   Overcast
5:36 AM 35.6 °F 28.6 °F 30.2 °F 81% 29.91 in 10.0 mi NNE 9.2 mph - N/A   Overcast
5:56 AM 35.6 °F 28.6 °F 30.2 °F 81% 29.90 in 10.0 mi North 9.2 mph - N/A   Overcast
6:16 AM 35.6 °F 28.6 °F 30.2 °F 81% 29.91 in 10.0 mi North 9.2 mph - N/A   Mostly Cloudy
6:36 AM 35.6 °F 28.0 °F 30.2 °F 81% 29.90 in 10.0 mi North 10.4 mph - N/A   Overcast
6:56 AM 35.6 °F 28.6 °F 30.2 °F 81% 29.90 in 10.0 mi North 9.2 mph - N/A   Overcast
7:16 AM 35.6 °F 28.0 °F 30.2 °F 81% 29.90 in 10.0 mi North 10.4 mph - N/A   Overcast
7:36 AM 35.6 °F 28.0 °F 30.2 °F 81% 29.90 in 10.0 mi North 10.4 mph - N/A   Overcast
7:56 AM 35.6 °F 26.6 °F 30.2 °F 81% 29.90 in 10.0 mi North 13.8 mph - N/A   Overcast
8:16 AM 33.8 °F 23.5 °F 30.2 °F 87% 29.91 in 10.0 mi North 16.1 mph - N/A   Overcast
8:36 AM 33.8 °F 23.9 °F 30.2 °F 87% 29.91 in 10.0 mi North 15.0 mph - N/A   Overcast
8:56 AM 33.8 °F 23.2 °F 30.2 °F 87% 29.91 in 10.0 mi North 17.3 mph - N/A   Overcast
9:16 AM 33.8 °F 22.8 °F 30.2 °F 87% 29.91 in 10.0 mi North 18.4 mph - N/A   Mostly Cloudy
9:36 AM 33.8 °F 23.5 °F 30.2 °F 87% 29.91 in 10.0 mi North 16.1 mph - N/A   Overcast
9:56 AM 33.8 °F 22.8 °F 30.2 °F 87% 29.91 in 10.0 mi North 18.4 mph - N/A   Overcast
10:16 AM 33.8 °F 22.2 °F 30.2 °F 87% 29.91 in 10.0 mi North 20.7 mph - N/A   Overcast
10:36 AM 33.8 °F 22.5 °F 30.2 °F 87% 29.91 in 10.0 mi North 19.6 mph - N/A   Overcast
10:56 AM 33.8 °F 22.5 °F 30.2 °F 87% 29.91 in 10.0 mi North 19.6 mph - N/A   Overcast
11:16 AM 33.8 °F 22.5 °F 30.2 °F 87% 29.91 in 10.0 mi North 19.6 mph - N/A   Overcast
11:36 AM 33.8 °F 22.8 °F 30.2 °F 87% 29.91 in 10.0 mi North 18.4 mph - N/A   Overcast
11:56 AM 35.6 °F 24.8 °F 30.2 °F 81% 29.91 in 10.0 mi North 19.6 mph - N/A   Overcast
12:16 PM 35.6 °F 24.8 °F 30.2 °F 81% 29.91 in 10.0 mi North 19.6 mph - N/A   Overcast
12:36 PM 35.6 °F 24.5 °F 30.2 °F 81% 29.91 in 10.0 mi North 20.7 mph - N/A   Overcast
12:56 PM 33.8 °F 22.2 °F 30.2 °F 87% 29.91 in 10.0 mi North 20.7 mph - N/A   Overcast
1:16 PM 33.8 °F 22.2 °F 30.2 °F 87% 29.91 in 10.0 mi North 20.7 mph - N/A   Overcast
1:36 PM 35.6 °F 24.5 °F 30.2 °F 81% 29.91 in 10.0 mi North 20.7 mph - N/A   Overcast
1:56 PM 35.6 °F 24.0 °F 28.4 °F 75% 29.92 in 10.0 mi North 23.0 mph - N/A   Overcast
2:16 PM 35.6 °F 24.0 °F 28.4 °F 75% 29.92 in 10.0 mi North 23.0 mph - N/A   Overcast
2:36 PM 35.6 °F 23.4 °F 28.4 °F 75% 29.92 in 10.0 mi North 25.3 mph - N/A   Overcast
2:56 PM 35.6 °F 23.4 °F 28.4 °F 75% 29.92 in 10.0 mi North 25.3 mph - N/A   Overcast
3:16 PM 35.6 °F 23.7 °F 28.4 °F 75% 29.91 in 10.0 mi North 24.2 mph 32.2 mph N/A   Overcast
3:36 PM 35.6 °F 23.0 °F 28.4 °F 75% 29.91 in 9.0 mi North 27.6 mph 31.1 mph N/A   Mostly Cloudy
3:56 PM 35.6 °F 23.7 °F 28.4 °F 75% 29.91 in 10.0 mi North 24.2 mph - N/A   Clear
4:36 PM 35.6 °F 23.4 °F 28.4 °F 75% 29.91 in 10.0 mi North 25.3 mph - N/A   Clear
4:56 PM 35.6 °F 23.4 °F 28.4 °F 75% 29.92 in 10.0 mi North 25.3 mph 29.9 mph N/A   Clear
5:16 PM 35.6 °F 23.7 °F 28.4 °F 75% 29.92 in 10.0 mi North 24.2 mph - N/A   Clear
5:36 PM 33.8 °F 21.0 °F 28.4 °F 81% 29.91 in 10.0 mi North 25.3 mph 29.9 mph N/A   Clear
5:56 PM 35.6 °F 23.4 °F 28.4 °F 75% 29.92 in 10.0 mi North 25.3 mph - N/A   Clear
6:16 PM 35.6 °F 23.4 °F 26.6 °F 70% 29.92 in 10.0 mi North 25.3 mph - N/A   Scattered Clouds
6:36 PM 33.8 °F 21.3 °F 28.4 °F 81% 29.92 in 10.0 mi North 24.2 mph 29.9 mph N/A   Overcast
6:56 PM 33.8 °F 21.6 °F 26.6 °F 75% 29.92 in 10.0 mi North 23.0 mph - N/A   Overcast
7:16 PM 33.8 °F 21.3 °F 26.6 °F 75% 29.92 in 10.0 mi North 24.2 mph - N/A   Overcast
7:36 PM 33.8 °F 20.8 °F 26.6 °F 75% 29.91 in 10.0 mi North 26.5 mph 29.9 mph N/A   Overcast
7:56 PM 33.8 °F 21.6 °F 26.6 °F 75% 29.91 in 10.0 mi North 23.0 mph - N/A   Overcast
8:16 PM 33.8 °F 21.0 °F 26.6 °F 75% 29.92 in 10.0 mi North 25.3 mph 28.8 mph N/A   Overcast
8:36 PM 32.0 °F 19.5 °F 26.6 °F 80% 29.91 in 7.0 mi North 21.9 mph 27.6 mph N/A   Overcast
8:56 PM 32.0 °F 19.2 °F 26.6 °F 80% 29.91 in 10.0 mi North 23.0 mph 29.9 mph N/A   Overcast
9:16 PM 32.0 °F 18.9 °F 26.6 °F 80% 29.91 in 10.0 mi North 24.2 mph - N/A   Overcast
9:36 PM 32.0 °F 18.6 °F 26.6 °F 80% 29.91 in 10.0 mi North 25.3 mph - N/A   Overcast
9:56 PM 32.0 °F 18.9 °F 26.6 °F 80% 29.91 in 10.0 mi North 24.2 mph 28.8 mph N/A   Overcast
10:16 PM 30.2 °F 17.4 °F 26.6 °F 86% 29.91 in 10.0 mi North 20.7 mph 27.6 mph N/A   Overcast
10:36 PM 30.2 °F 16.5 °F 26.6 °F 86% 29.90 in 9.0 mi North 24.2 mph - N/A   Overcast
10:56 PM 30.2 °F 17.1 °F 26.6 °F 86% 29.90 in 10.0 mi North 21.9 mph 26.5 mph N/A   Overcast
11:16 PM 30.2 °F 16.8 °F 26.6 °F 86% 29.89 in 10.0 mi North 23.0 mph 28.8 mph N/A   Overcast
11:36 PM 30.2 °F 17.1 °F 24.8 °F 80% 29.89 in 10.0 mi North 21.9 mph - N/A   Overcast